Location: Ammerl�gen
(47.2167°N, 9.6000°E)
Time: 07:06:59
(UTC+00:00)

RS-15 - Pass Details

Date: 16 December 2021
Orbit: 1882 x 2162 km, 64.8° (Epoch: 17 January)

Event Time Altitude Azimuth Distance (km) Brightness Sun altitude
Exits shadow 04:19:47 29° 315° (NW) 3,310 8.8 -26.4°
Maximum altitude 04:23:58 35° 349° (N) 3,048 8.8 -25.7°
Drops below altitude 10° 04:34:59 10° 53° (NE) 4,685 10.6 -23.9°
Sets 04:39:04 0° 62° (ENE) 5,694 11.3 -23.2°
